This demonstration page uses our WeatherBlox Daily Observations layout. Learn more.

41.55636, -103.73856

Hourly Observations for May 7, 2018

Temp ( °F °C ) Dew Point ( °F °C ) Humidity (%) Winds ( mph kmh ) Pressure ( in mb ) Visibility ( mi km ) Precip ( " mm )
12:58 am 00:58 Clear 54 12.2 42 5.8 65 65 SSE 13 20 30.12 1020 10 16.0934 N/A
1:58 am 01:58 Clear 53 11.6 42 5.6 67 67 S 15 24 30.1 1019 10 16.0934 N/A
2:58 am 02:58 Clear 52 11.3 42 5.4 67 67 S 13 20 30.09 1019 10 16.0934 N/A
3:58 am 03:58 Mostly Clear 53 11.8 42 5.3 65 65 S 15 24 30.07 1018 10 16.0934 N/A
4:58 am 04:58 Clear 52 11.2 41 5.1 66 66 SSW 14 22 30.07 1018 10 16.0934 N/A
5:58 am 05:58 Sunny 52 11.2 41 4.9 65 65 SSW 14 22 30.07 1018 10 16.0934 N/A
6:58 am 06:58 Sunny 55 12.6 42 5.6 63 63 SSW 13 20 30.07 1018 10 16.0934 N/A
7:58 am 07:58 Sunny 60 15.8 42 5.8 52 52 SSW 21 33 30.06 1018 10 16.0934 N/A
8:58 am 08:58 Sunny 62 16.8 43 5.9 49 49 SSW 26 43 30.05 1018 10 16.0934 N/A
9:58 am 09:58 Sunny 64 18 44 6.5 47 47 SSW 22 35 30.04 1017 10 16.0934 N/A
10:58 am 10:58 Sunny 68 20 43 6 40 40 SSW 20 31 30.03 1017 10 16.0934 N/A
11:58 am 11:58 Sunny 72 22.2 42 5.7 34 34 SSW 15 24 29.99 1016 10 16.0934 N/A
12:58 pm 12:58 Sunny 77 25 43 6.2 30 30 SSW 15 24 29.94 1014 10 16.0934 N/A
1:58 pm 13:58 Sunny 79 25.9 37 2.9 23 23 SSW 15 24 29.93 1014 10 16.0934 N/A
2:58 pm 14:58 Sunny 80 26.5 31 -0.5 17 17 S 15 24 29.9 1013 10 16.0934 N/A
3:58 pm 15:58 Sunny 80 26.6 35 1.5 20 20 SSW 20 31 29.88 1012 10 16.0934 N/A
5:58 pm 17:58 Partly Cloudy 78 25.6 35 1.5 21 21 SW 17 28 29.86 1011 10 16.0934 N/A
6:58 pm 18:58 Sunny 72 22.2 39 4 31 31 WSW 12 19 29.88 1012 10 16.0934 N/A
7:58 pm 19:58 Mostly Sunny 66 19 43 6.2 43 43 WSW 13 20 29.88 1012 10 16.0934 N/A
8:58 pm 20:58 Partly Cloudy 62 16.9 45 7.4 54 54 WSW 13 20 29.88 1012 10 16.0934 N/A
9:58 pm 21:58 Mostly Cloudy 61 16 44 6.9 55 55 W 12 19 29.89 1012 10 16.0934 N/A
10:58 pm 22:58 Mostly Clear 57 13.9 40 4.3 53 53 W 10 17 29.87 1012 10 16.0934 N/A
11:58 pm 23:58 Mostly Clear 56 13.5 35 1.9 46 46 NW 16 26 29.87 1012 10 16.0934 N/A

Powered by AerisWeather